| time (UTC) | temp F | wind direction | speed MPH | gust MPH | rain 1hr in | rain 24hr in | rain mn in | humidity % | barometer mb |
| 20260504160328 | 73 | 247 | 0.0 | 3.0 | 0.00 | 0.00 | 0.00 | 5 | 1017.0 |
| 20260504150926 | 71 | 295 | 4.0 | 6.0 | 0.00 | 0.00 | 0.00 | 5 | 1017.3 |
| 20260504150627 | 71 | 291 | 5.0 | 7.0 | 0.00 | 0.00 | 0.00 | 5 | 1017.3 |
| 20260504150327 | 70 | 0 | 1.0 | 4.0 | 0.00 | 0.00 | 0.00 | 5 | 1017.5 |
| 20260504141226 | 66 | 225 | 0.0 | 2.0 | 0.00 | 0.00 | 0.00 | 6 | 1018.2 |
| 20260504140926 | 65 | 225 | 1.0 | 5.0 | 0.00 | 0.00 | 0.00 | 6 | 1018.2 |
| 20260504140626 | 65 | 202 | 1.0 | 3.0 | 0.00 | 0.00 | 0.00 | 6 | 1018.3 |
| 20260504140326 | 65 | 0 | 0.0 | 0.0 | 0.00 | 0.00 | 0.00 | 6 | 1018.3 |
| 20260504130626 | 57 | 0 | 0.0 | 0.0 | 0.00 | 0.00 | 0.00 | 9 | 1018.8 |
| 20260504130326 | 55 | 0 | 0.0 | 0.0 | 0.00 | 0.00 | 0.00 | 8 | 1018.9 |
| 20260504110626 | 39 | 0 | 0.0 | 0.0 | 0.00 | 0.00 | 0.00 | 9 | 1019.9 |
| 20260504110326 | 39 | 0 | 0.0 | 0.0 | 0.00 | 0.00 | 0.00 | 9 | 1019.9 |
| 20260504100326 | 39 | 0 | 0.0 | 0.0 | 0.00 | 0.00 | 0.00 | 9 | 1019.7 |
| 20260504081827 | 40 | 0 | 0.0 | 0.0 | 0.00 | 0.00 | 0.00 | 9 | 1019.6 |
| 20260504081527 | 40 | 0 | 0.0 | 0.0 | 0.00 | 0.00 | 0.00 | 9 | 1019.6 |
| 20260504081227 | 40 | 0 | 0.0 | 0.0 | 0.00 | 0.00 | 0.00 | 9 | 1019.6 |
| 20260504080927 | 40 | 0 | 0.0 | 0.0 | 0.00 | 0.00 | 0.00 | 9 | 1019.5 |
| 20260504080627 | 40 | 0 | 0.0 | 0.0 | 0.00 | 0.00 | 0.00 | 9 | 1019.5 |
| 20260504080327 | 40 | 0 | 0.0 | 0.0 | 0.00 | 0.00 | 0.00 | 9 | 1019.6 |
| 20260504070326 | 41 | 0 | 0.0 | 0.0 | 0.00 | 0.00 | 0.00 | 9 | 1019.8 |
| 20260504050626 | 43 | 0 | 0.0 | 0.0 | 0.00 | 0.00 | 0.00 | 9 | 1020.4 |
| 20260504050326 | 43 | 0 | 0.0 | 0.0 | 0.00 | 0.00 | 0.00 | 9 | 1020.4 |
| 20260504045726 | 44 | 0 | 0.0 | 0.0 | 0.00 | 0.00 | 0.00 | 9 | 1020.3 |
| 20260504045426 | 43 | 0 | 0.0 | 0.0 | 0.00 | 0.00 | 0.00 | 9 | 1020.3 |
| 20260504044826 | 43 | 0 | 0.0 | 0.0 | 0.00 | 0.00 | 0.00 | 9 | 1020.4 |
| 20260504044526 | 43 | 0 | 0.0 | 0.0 | 0.00 | 0.00 | 0.00 | 9 | 1020.4 |
| 20260504044226 | 43 | 0 | 0.0 | 0.0 | 0.00 | 0.00 | 0.00 | 9 | 1020.4 |
| 20260504043926 | 43 | 0 | 0.0 | 0.0 | 0.00 | 0.00 | 0.00 | 9 | 1020.4 |
| 20260504043626 | 43 | 0 | 0.0 | 0.0 | 0.00 | 0.00 | 0.00 | 9 | 1020.4 |
| 20260504043326 | 44 | 0 | 0.0 | 0.0 | 0.00 | 0.00 | 0.00 | 9 | 1020.4 |
| 20260504043026 | 44 | 0 | 0.0 | 0.0 | 0.00 | 0.00 | 0.00 | 9 | 1020.5 |
| 20260504042726 | 44 | 0 | 0.0 | 0.0 | 0.00 | 0.00 | 0.00 | 9 | 1020.4 |
| 20260504042426 | 44 | 0 | 0.0 | 0.0 | 0.00 | 0.00 | 0.00 | 9 | 1020.5 |
| 20260504042126 | 44 | 0 | 0.0 | 0.0 | 0.00 | 0.00 | 0.00 | 9 | 1020.6 |
| 20260504041526 | 44 | 0 | 0.0 | 0.0 | 0.00 | 0.00 | 0.00 | 9 | 1020.7 |
| 20260504041227 | 44 | 0 | 0.0 | 0.0 | 0.00 | 0.00 | 0.00 | 9 | 1020.7 |
| 20260504040927 | 44 | 0 | 0.0 | 0.0 | 0.00 | 0.00 | 0.00 | 9 | 1020.7 |
| 20260504040627 | 44 | 0 | 0.0 | 0.0 | 0.00 | 0.00 | 0.00 | 9 | 1020.7 |
| 20260504040327 | 44 | 0 | 0.0 | 0.0 | 0.00 | 0.00 | 0.00 | 9 | 1020.7 |
| 20260504040027 | 44 | 0 | 0.0 | 0.0 | 0.00 | 0.00 | 0.00 | 9 | 1020.6 |
| 20260504035727 | 44 | 0 | 0.0 | 0.0 | 0.00 | 0.00 | 0.00 | 9 | 1020.6 |
| 20260504035427 | 44 | 0 | 0.0 | 0.0 | 0.00 | 0.00 | 0.00 | 9 | 1020.6 |
| 20260504034827 | 45 | 0 | 0.0 | 0.0 | 0.00 | 0.00 | 0.00 | 9 | 1020.6 |
| 20260504034527 | 45 | 0 | 0.0 | 0.0 | 0.00 | 0.00 | 0.00 | 9 | 1020.5 |
| 20260504034227 | 45 | 0 | 0.0 | 0.0 | 0.00 | 0.00 | 0.00 | 9 | 1020.6 |
| 20260504033927 | 45 | 0 | 0.0 | 0.0 | 0.00 | 0.00 | 0.00 | 9 | 1020.6 |
| 20260504033627 | 45 | 0 | 0.0 | 0.0 | 0.00 | 0.00 | 0.00 | 9 | 1020.5 |
| 20260504033327 | 45 | 0 | 0.0 | 0.0 | 0.00 | 0.00 | 0.00 | 9 | 1020.4 |
| 20260504033027 | 45 | 0 | 0.0 | 0.0 | 0.00 | 0.00 | 0.00 | 9 | 1020.5 |
| 20260504032727 | 45 | 0 | 0.0 | 0.0 | 0.00 | 0.00 | 0.00 | 9 | 1020.5 |
| 20260504032427 | 45 | 0 | 0.0 | 0.0 | 0.00 | 0.00 | 0.00 | 9 | 1020.5 |
| 20260504032126 | 45 | 0 | 0.0 | 0.0 | 0.00 | 0.00 | 0.00 | 9 | 1020.5 |
| 20260504031827 | 45 | 0 | 0.0 | 0.0 | 0.00 | 0.00 | 0.00 | 9 | 1020.5 |
| 20260504031526 | 46 | 0 | 0.0 | 0.0 | 0.00 | 0.00 | 0.00 | 9 | 1020.5 |
| 20260504031226 | 46 | 0 | 0.0 | 0.0 | 0.00 | 0.00 | 0.00 | 9 | 1020.5 |
| 20260504030926 | 46 | 0 | 0.0 | 0.0 | 0.00 | 0.00 | 0.00 | 9 | 1020.4 |
| 20260504030626 | 46 | 0 | 0.0 | 0.0 | 0.00 | 0.00 | 0.00 | 9 | 1020.3 |
| 20260504030326 | 46 | 0 | 0.0 | 0.0 | 0.00 | 0.00 | 0.00 | 9 | 1020.3 |
| 20260504030026 | 46 | 0 | 0.0 | 0.0 | 0.00 | 0.00 | 0.00 | 9 | 1020.3 |
| 20260504025726 | 46 | 0 | 0.0 | 0.0 | 0.00 | 0.00 | 0.00 | 9 | 1020.3 |
| 20260504025426 | 46 | 0 | 0.0 | 0.0 | 0.00 | 0.00 | 0.00 | 9 | 1020.3 |
| 20260504024826 | 47 | 0 | 0.0 | 0.0 | 0.00 | 0.00 | 0.00 | 9 | 1020.3 |
| 20260504024526 | 47 | 0 | 0.0 | 0.0 | 0.00 | 0.00 | 0.00 | 9 | 1020.3 |
| 20260504024226 | 47 | 0 | 0.0 | 0.0 | 0.00 | 0.00 | 0.00 | 9 | 1020.3 |
| 20260504023926 | 47 | 0 | 0.0 | 0.0 | 0.00 | 0.00 | 0.00 | 9 | 1020.2 |
| 20260504023626 | 47 | 0 | 0.0 | 0.0 | 0.00 | 0.00 | 0.00 | 9 | 1020.2 |
| 20260504023326 | 48 | 0 | 0.0 | 0.0 | 0.00 | 0.00 | 0.00 | 9 | 1020.1 |
| 20260504023026 | 48 | 0 | 0.0 | 0.0 | 0.00 | 0.00 | 0.00 | 9 | 1020.1 |
| 20260504022726 | 48 | 0 | 0.0 | 0.0 | 0.00 | 0.00 | 0.00 | 9 | 1020.1 |
| 20260504022426 | 48 | 0 | 0.0 | 0.0 | 0.00 | 0.00 | 0.00 | 9 | 1020.0 |
| 20260504022126 | 48 | 0 | 0.0 | 0.0 | 0.00 | 0.00 | 0.00 | 9 | 1019.9 |
| 20260504021826 | 48 | 0 | 0.0 | 0.0 | 0.00 | 0.00 | 0.00 | 9 | 1019.9 |
| 20260504021526 | 48 | 0 | 0.0 | 0.0 | 0.00 | 0.00 | 0.00 | 9 | 1019.8 |
| 20260504021226 | 48 | 0 | 0.0 | 0.0 | 0.00 | 0.00 | 0.00 | 9 | 1019.8 |
| 20260504020926 | 49 | 0 | 0.0 | 0.0 | 0.00 | 0.00 | 0.00 | 8 | 1019.7 |
| 20260504020626 | 49 | 0 | 0.0 | 0.0 | 0.00 | 0.00 | 0.00 | 9 | 1019.7 |
| 20260504020326 | 49 | 0 | 0.0 | 0.0 | 0.00 | 0.00 | 0.00 | 8 | 1019.6 |
| 20260504020026 | 49 | 0 | 0.0 | 0.0 | 0.00 | 0.00 | 0.00 | 9 | 1019.6 |
| 20260504015726 | 50 | 0 | 0.0 | 0.0 | 0.00 | 0.00 | 0.00 | 8 | 1019.6 |
| 20260504015426 | 50 | 0 | 0.0 | 0.0 | 0.00 | 0.00 | 0.00 | 8 | 1019.4 |
| 20260504014826 | 50 | 0 | 0.0 | 0.0 | 0.00 | 0.00 | 0.00 | 8 | 1019.4 |
| 20260504014526 | 50 | 0 | 0.0 | 0.0 | 0.00 | 0.00 | 0.00 | 8 | 1019.4 |
| 20260504014226 | 51 | 0 | 0.0 | 0.0 | 0.00 | 0.00 | 0.00 | 8 | 1019.3 |
| 20260504013926 | 51 | 0 | 0.0 | 0.0 | 0.00 | 0.00 | 0.00 | 8 | 1019.1 |
| 20260504013626 | 51 | 0 | 0.0 | 0.0 | 0.00 | 0.00 | 0.00 | 8 | 1019.0 |
| 20260504013326 | 52 | 0 | 0.0 | 0.0 | 0.00 | 0.00 | 0.00 | 8 | 1019.1 |
| 20260504013026 | 52 | 0 | 0.0 | 0.0 | 0.00 | 0.00 | 0.00 | 8 | 1019.0 |
| 20260504012726 | 52 | 0 | 0.0 | 0.0 | 0.00 | 0.00 | 0.00 | 8 | 1019.0 |
| 20260504012426 | 53 | 0 | 0.0 | 0.0 | 0.00 | 0.00 | 0.00 | 8 | 1018.9 |
| 20260504012126 | 53 | 0 | 0.0 | 0.0 | 0.00 | 0.00 | 0.00 | 8 | 1018.8 |
| 20260504011526 | 54 | 0 | 0.0 | 0.0 | 0.00 | 0.00 | 0.00 | 8 | 1018.7 |
| 20260504011226 | 54 | 0 | 0.0 | 0.0 | 0.00 | 0.00 | 0.00 | 8 | 1018.6 |
| 20260504010926 | 54 | 0 | 0.0 | 0.0 | 0.00 | 0.00 | 0.00 | 8 | 1018.5 |
| 20260504010626 | 55 | 0 | 0.0 | 0.0 | 0.00 | 0.00 | 0.00 | 7 | 1018.5 |
| 20260504010326 | 55 | 0 | 0.0 | 0.0 | 0.00 | 0.00 | 0.00 | 7 | 1018.4 |
| 20260504005726 | 57 | 0 | 0.0 | 0.0 | 0.00 | 0.00 | 0.00 | 7 | 1018.2 |
| 20260504005426 | 57 | 0 | 0.0 | 0.0 | 0.00 | 0.00 | 0.00 | 7 | 1018.1 |
| 20260504004826 | 58 | 0 | 0.0 | 0.0 | 0.00 | 0.00 | 0.00 | 7 | 1018.0 |
| 20260504004526 | 59 | 0 | 0.0 | 0.0 | 0.00 | 0.00 | 0.00 | 7 | 1018.0 |
| 20260504004226 | 60 | 0 | 0.0 | 0.0 | 0.00 | 0.00 | 0.00 | 6 | 1017.9 |
| 20260504003926 | 60 | 0 | 0.0 | 0.0 | 0.00 | 0.00 | 0.00 | 6 | 1017.8 |
| 20260504003626 | 61 | 0 | 0.0 | 0.0 | 0.00 | 0.00 | 0.00 | 6 | 1017.6 |
| 20260504003326 | 61 | 0 | 0.0 | 0.0 | 0.00 | 0.00 | 0.00 | 6 | 1017.6 |
| 20260504003026 | 63 | 0 | 0.0 | 0.0 | 0.00 | 0.00 | 0.00 | 6 | 1017.5 |
| 20260504002726 | 63 | 0 | 0.0 | 0.0 | 0.00 | 0.00 | 0.00 | 6 | 1017.4 |
| 20260504002426 | 64 | 0 | 0.0 | 0.0 | 0.00 | 0.00 | 0.00 | 6 | 1017.3 |
| 20260504002126 | 64 | 0 | 0.0 | 0.0 | 0.00 | 0.00 | 0.00 | 5 | 1017.3 |
| 20260504001526 | 67 | 0 | 0.0 | 0.0 | 0.00 | 0.00 | 0.00 | 5 | 1017.1 |
| 20260504001226 | 69 | 0 | 0.0 | 0.0 | 0.00 | 0.00 | 0.00 | 5 | 1017.0 |
| 20260504000926 | 70 | 0 | 0.0 | 0.0 | 0.00 | 0.00 | 0.00 | 5 | 1016.9 |
| 20260504000626 | 70 | 0 | 0.0 | 0.0 | 0.00 | 0.00 | 0.00 | 4 | 1016.8 |
| 20260504000327 | 70 | 0 | 0.0 | 0.0 | 0.00 | 0.00 | 0.00 | 4 | 1016.9 |
| 20260504000027 | 70 | 0 | 0.0 | 0.0 | 0.00 | 0.00 | 0.00 | 4 | 1016.8 |
| 20260503235727 | 70 | 0 | 0.0 | 0.0 | 0.00 | 0.00 | 0.00 | 4 | 1016.8 |
| 20260503235427 | 70 | 0 | 0.0 | 0.0 | 0.00 | 0.00 | 0.00 | 4 | 1016.8 |
| 20260503234827 | 70 | 0 | 0.0 | 0.0 | 0.00 | 0.00 | 0.00 | 4 | 1016.8 |
| 20260503234527 | 70 | 0 | 0.0 | 0.0 | 0.00 | 0.00 | 0.00 | 4 | 1016.8 |
| 20260503234227 | 70 | 0 | 0.0 | 0.0 | 0.00 | 0.00 | 0.00 | 4 | 1016.9 |
| 20260503233927 | 70 | 0 | 0.0 | 0.0 | 0.00 | 0.00 | 0.00 | 4 | 1016.8 |
| 20260503233627 | 70 | 0 | 0.0 | 0.0 | 0.00 | 0.00 | 0.00 | 4 | 1016.8 |
| 20260503233327 | 70 | 318 | 2.0 | 4.0 | 0.00 | 0.00 | 0.00 | 4 | 1016.9 |
| 20260503233027 | 70 | 313 | 4.0 | 6.0 | 0.00 | 0.00 | 0.00 | 4 | 1016.9 |
| 20260503232727 | 70 | 308 | 4.0 | 4.0 | 0.00 | 0.00 | 0.00 | 4 | 1016.9 |
| 20260503232427 | 71 | 299 | 4.0 | 6.0 | 0.00 | 0.00 | 0.00 | 4 | 1016.8 |
| 20260503232127 | 71 | 323 | 4.0 | 7.0 | 0.00 | 0.00 | 0.00 | 4 | 1016.7 |
| 20260503231826 | 72 | 270 | 1.0 | 2.0 | 0.00 | 0.00 | 0.00 | 4 | 1016.7 |
| 20260503231526 | 71 | 337 | 4.0 | 5.0 | 0.00 | 0.00 | 0.00 | 4 | 1016.7 |
| 20260503231227 | 71 | 303 | 3.0 | 5.0 | 0.00 | 0.00 | 0.00 | 4 | 1016.7 |
| 20260503230927 | 72 | 326 | 4.0 | 7.0 | 0.00 | 0.00 | 0.00 | 4 | 1016.8 |
| 20260503230626 | 72 | 316 | 2.0 | 4.0 | 0.00 | 0.00 | 0.00 | 4 | 1016.8 |
| 20260503230326 | 71 | 245 | 2.0 | 3.0 | 0.00 | 0.00 | 0.00 | 4 | 1016.9 |
| 20260503230026 | 71 | 286 | 3.0 | 4.0 | 0.00 | 0.00 | 0.00 | 4 | 1016.9 |
| 20260503225726 | 71 | 315 | 2.0 | 5.0 | 0.00 | 0.00 | 0.00 | 4 | 1016.8 |
| 20260503225426 | 71 | 292 | 2.0 | 5.0 | 0.00 | 0.00 | 0.00 | 4 | 1016.8 |
| 20260503224827 | 73 | 3 | 4.0 | 6.0 | 0.00 | 0.00 | 0.00 | 4 | 1016.7 |
| 20260503224527 | 72 | 0 | 0.0 | 2.0 | 0.00 | 0.00 | 0.00 | 4 | 1016.8 |
| 20260503224227 | 72 | 290 | 5.0 | 7.0 | 0.00 | 0.00 | 0.00 | 4 | 1016.8 |
| 20260503223927 | 71 | 266 | 3.0 | 6.0 | 0.00 | 0.00 | 0.00 | 4 | 1016.8 |
| 20260503223627 | 72 | 341 | 7.0 | 8.0 | 0.00 | 0.00 | 0.00 | 3 | 1016.8 |
| 20260503223326 | 72 | 326 | 5.0 | 7.0 | 0.00 | 0.00 | 0.00 | 3 | 1016.7 |
| 20260503223027 | 72 | 13 | 5.0 | 6.0 | 0.00 | 0.00 | 0.00 | 3 | 1016.7 |
| 20260503222726 | 73 | 337 | 2.0 | 6.0 | 0.00 | 0.00 | 0.00 | 4 | 1016.7 |
| 20260503222427 | 73 | 301 | 3.0 | 6.0 | 0.00 | 0.00 | 0.00 | 3 | 1016.7 |
| 20260503222126 | 74 | 337 | 2.0 | 7.0 | 0.00 | 0.00 | 0.00 | 3 | 1016.6 |
| 20260503221826 | 73 | 282 | 2.0 | 4.0 | 0.00 | 0.00 | 0.00 | 3 | 1016.7 |
| 20260503221526 | 72 | 328 | 4.0 | 7.0 | 0.00 | 0.00 | 0.00 | 3 | 1016.8 |
| 20260503221226 | 72 | 329 | 5.0 | 8.0 | 0.00 | 0.00 | 0.00 | 3 | 1016.8 |
| 20260503220926 | 76 | 333 | 4.0 | 6.0 | 0.00 | 0.00 | 0.00 | 3 | 1016.5 |
| 20260503220626 | 75 | 307 | 3.0 | 4.0 | 0.00 | 0.00 | 0.00 | 3 | 1016.6 |
| 20260503220326 | 73 | 304 | 2.0 | 4.0 | 0.00 | 0.00 | 0.00 | 4 | 1016.7 |
| 20260503220026 | 72 | 0 | 0.0 | 2.0 | 0.00 | 0.00 | 0.00 | 4 | 1016.9 |
| 20260503215726 | 71 | 270 | 2.0 | 4.0 | 0.00 | 0.00 | 0.00 | 4 | 1017.0 |
| 20260503215426 | 70 | 264 | 3.0 | 5.0 | 0.00 | 0.00 | 0.00 | 4 | 1017.0 |
| 20260503214826 | 71 | 296 | 3.0 | 5.0 | 0.00 | 0.00 | 0.00 | 4 | 1017.0 |
| 20260503214526 | 70 | 22 | 1.0 | 2.0 | 0.00 | 0.00 | 0.00 | 4 | 1017.1 |
| 20260503214226 | 69 | 0 | 0.0 | 0.0 | 0.00 | 0.00 | 0.00 | 4 | 1017.1 |
| 20260503213926 | 69 | 301 | 4.0 | 7.0 | 0.00 | 0.00 | 0.00 | 3 | 1017.2 |
| 20260503213626 | 69 | 351 | 6.0 | 8.0 | 0.00 | 0.00 | 0.00 | 3 | 1017.2 |
| 20260503213326 | 70 | 4 | 4.0 | 6.0 | 0.00 | 0.00 | 0.00 | 3 | 1017.2 |
| 20260503213026 | 71 | 314 | 6.0 | 8.0 | 0.00 | 0.00 | 0.00 | 3 | 1017.1 |
| 20260503212726 | 69 | 268 | 2.0 | 3.0 | 0.00 | 0.00 | 0.00 | 3 | 1017.3 |
| 20260503212426 | 69 | 270 | 1.0 | 3.0 | 0.00 | 0.00 | 0.00 | 3 | 1017.3 |
| 20260503212126 | 70 | 275 | 6.0 | 9.0 | 0.00 | 0.00 | 0.00 | 3 | 1017.3 |
| 20260503211826 | 70 | 337 | 6.0 | 10.0 | 0.00 | 0.00 | 0.00 | 3 | 1017.2 |
| 20260503211226 | 70 | 288 | 5.0 | 8.0 | 0.00 | 0.00 | 0.00 | 3 | 1017.2 |
| 20260503210926 | 71 | 337 | 3.0 | 9.0 | 0.00 | 0.00 | 0.00 | 4 | 1017.1 |
| 20260503210626 | 70 | 287 | 3.0 | 8.0 | 0.00 | 0.00 | 0.00 | 4 | 1017.2 |
| 20260503210326 | 69 | 286 | 3.0 | 4.0 | 0.00 | 0.00 | 0.00 | 4 | 1017.2 |
| 20260503210026 | 69 | 17 | 2.0 | 4.0 | 0.00 | 0.00 | 0.00 | 4 | 1017.3 |
| 20260503205726 | 69 | 328 | 5.0 | 6.0 | 0.00 | 0.00 | 0.00 | 3 | 1017.3 |
| 20260503205426 | 69 | 320 | 5.0 | 7.0 | 0.00 | 0.00 | 0.00 | 3 | 1017.3 |
| 20260503204826 | 70 | 291 | 5.0 | 6.0 | 0.00 | 0.00 | 0.00 | 4 | 1017.3 |
| 20260503204526 | 69 | 337 | 8.0 | 14.0 | 0.00 | 0.00 | 0.00 | 4 | 1017.4 |
| 20260503204226 | 69 | 0 | 0.0 | 0.0 | 0.00 | 0.00 | 0.00 | 4 | 1017.4 |
| 20260503203926 | 70 | 300 | 6.0 | 8.0 | 0.00 | 0.00 | 0.00 | 4 | 1017.4 |
| 20260503203626 | 69 | 320 | 6.0 | 7.0 | 0.00 | 0.00 | 0.00 | 4 | 1017.5 |
| 20260503203326 | 69 | 243 | 2.0 | 3.0 | 0.00 | 0.00 | 0.00 | 4 | 1017.5 |
| 20260503203026 | 69 | 269 | 4.0 | 7.0 | 0.00 | 0.00 | 0.00 | 4 | 1017.6 |
| 20260503202726 | 69 | 334 | 6.0 | 10.0 | 0.00 | 0.00 | 0.00 | 4 | 1017.8 |
| 20260503202426 | 69 | 5 | 2.0 | 4.0 | 0.00 | 0.00 | 0.00 | 3 | 1017.8 |
| 20260503202126 | 69 | 349 | 5.0 | 7.0 | 0.00 | 0.00 | 0.00 | 3 | 1017.8 |
| 20260503201826 | 69 | 333 | 7.0 | 9.0 | 0.00 | 0.00 | 0.00 | 3 | 1017.8 |
| 20260503201526 | 69 | 359 | 5.0 | 7.0 | 0.00 | 0.00 | 0.00 | 4 | 1018.0 |
| 20260503201226 | 70 | 348 | 8.0 | 10.0 | 0.00 | 0.00 | 0.00 | 4 | 1017.9 |
| 20260503200926 | 70 | 356 | 4.0 | 8.0 | 0.00 | 0.00 | 0.00 | 4 | 1018.0 |
| 20260503200626 | 70 | 327 | 3.0 | 5.0 | 0.00 | 0.00 | 0.00 | 4 | 1018.1 |
| 20260503200326 | 69 | 244 | 1.0 | 3.0 | 0.00 | 0.00 | 0.00 | 4 | 1018.2 |
| 20260503200026 | 69 | 291 | 6.0 | 9.0 | 0.00 | 0.00 | 0.00 | 4 | 1018.2 |
| 20260503195726 | 70 | 266 | 4.0 | 8.0 | 0.00 | 0.00 | 0.00 | 4 | 1018.2 |
| 20260503195426 | 70 | 287 | 5.0 | 9.0 | 0.00 | 0.00 | 0.00 | 4 | 1018.2 |
| 20260503194827 | 69 | 350 | 3.0 | 6.0 | 0.00 | 0.00 | 0.00 | 4 | 1018.4 |
| 20260503194527 | 70 | 330 | 6.0 | 8.0 | 0.00 | 0.00 | 0.00 | 4 | 1018.4 |
| 20260503194227 | 69 | 322 | 3.0 | 5.0 | 0.00 | 0.00 | 0.00 | 4 | 1018.4 |
| 20260503193927 | 70 | 321 | 5.0 | 7.0 | 0.00 | 0.00 | 0.00 | 4 | 1018.5 |
| 20260503193627 | 70 | 335 | 2.0 | 3.0 | 0.00 | 0.00 | 0.00 | 4 | 1018.5 |
| 20260503193327 | 69 | 184 | 1.0 | 2.0 | 0.00 | 0.00 | 0.00 | 4 | 1018.6 |
| 20260503193027 | 70 | 208 | 2.0 | 3.0 | 0.00 | 0.00 | 0.00 | 4 | 1018.7 |
| 20260503192727 | 68 | 292 | 1.0 | 3.0 | 0.00 | 0.00 | 0.00 | 4 | 1018.9 |
| 20260503192427 | 69 | 53 | 3.0 | 5.0 | 0.00 | 0.00 | 0.00 | 4 | 1018.8 |
| 20260503192127 | 70 | 309 | 5.0 | 6.0 | 0.00 | 0.00 | 0.00 | 4 | 1018.8 |
| 20260503191527 | 69 | 220 | 2.0 | 4.0 | 0.00 | 0.00 | 0.00 | 4 | 1018.9 |
| 20260503191227 | 69 | 170 | 3.0 | 3.0 | 0.00 | 0.00 | 0.00 | 4 | 1019.0 |
| 20260503190927 | 69 | 284 | 4.0 | 6.0 | 0.00 | 0.00 | 0.00 | 4 | 1019.1 |
| 20260503190627 | 69 | 270 | 4.0 | 6.0 | 0.00 | 0.00 | 0.00 | 4 | 1019.1 |
| 20260503190327 | 68 | 343 | 3.0 | 6.0 | 0.00 | 0.00 | 0.00 | 4 | 1019.2 |
| 20260503190027 | 69 | 329 | 7.0 | 9.0 | 0.00 | 0.00 | 0.00 | 4 | 1019.2 |
| 20260503185726 | 69 | 300 | 4.0 | 6.0 | 0.00 | 0.00 | 0.00 | 4 | 1019.1 |
| 20260503185427 | 69 | 294 | 3.0 | 4.0 | 0.00 | 0.00 | 0.00 | 4 | 1019.1 |
| 20260503184826 | 69 | 212 | 1.0 | 3.0 | 0.00 | 0.00 | 0.00 | 4 | 1019.1 |
| 20260503184526 | 68 | 272 | 3.0 | 4.0 | 0.00 | 0.00 | 0.00 | 4 | 1019.3 |
| 20260503184226 | 68 | 354 | 4.0 | 6.0 | 0.00 | 0.00 | 0.00 | 4 | 1019.4 |
| 20260503183926 | 69 | 310 | 5.0 | 8.0 | 0.00 | 0.00 | 0.00 | 4 | 1019.3 |
| 20260503183626 | 68 | 316 | 2.0 | 4.0 | 0.00 | 0.00 | 0.00 | 4 | 1019.4 |
| 20260503183327 | 68 | 342 | 3.0 | 6.0 | 0.00 | 0.00 | 0.00 | 4 | 1019.4 |
| 20260503183026 | 69 | 337 | 6.0 | 6.0 | 0.00 | 0.00 | 0.00 | 4 | 1019.4 |
| 20260503182726 | 69 | 298 | 3.0 | 4.0 | 0.00 | 0.00 | 0.00 | 4 | 1019.5 |
| 20260503182426 | 68 | 244 | 1.0 | 3.0 | 0.00 | 0.00 | 0.00 | 4 | 1019.5 |
| 20260503182127 | 67 | 274 | 3.0 | 4.0 | 0.00 | 0.00 | 0.00 | 4 | 1019.7 |
| 20260503181826 | 67 | 217 | 3.0 | 5.0 | 0.00 | 0.00 | 0.00 | 4 | 1019.7 |
| 20260503181526 | 68 | 276 | 3.0 | 6.0 | 0.00 | 0.00 | 0.00 | 4 | 1019.6 |
| 20260503181226 | 68 | 2 | 3.0 | 4.0 | 0.00 | 0.00 | 0.00 | 4 | 1019.6 |
| 20260503180926 | 67 | 159 | 3.0 | 6.0 | 0.00 | 0.00 | 0.00 | 4 | 1019.7 |
| 20260503180626 | 68 | 225 | 4.0 | 6.0 | 0.00 | 0.00 | 0.00 | 4 | 1019.7 |
| 20260503180326 | 67 | 234 | 3.0 | 5.0 | 0.00 | 0.00 | 0.00 | 4 | 1019.8 |
| 20260503180026 | 68 | 270 | 2.0 | 4.0 | 0.00 | 0.00 | 0.00 | 4 | 1019.8 |
| 20260503175726 | 67 | 292 | 3.0 | 5.0 | 0.00 | 0.00 | 0.00 | 4 | 1019.8 |
| 20260503175426 | 67 | 7 | 6.0 | 6.0 | 0.00 | 0.00 | 0.00 | 4 | 1019.8 |
| 20260503174826 | 66 | 281 | 2.0 | 5.0 | 0.00 | 0.00 | 0.00 | 4 | 1019.9 |
| 20260503174526 | 66 | 7 | 5.0 | 7.0 | 0.00 | 0.00 | 0.00 | 5 | 1020.0 |
| 20260503174226 | 66 | 307 | 8.0 | 11.0 | 0.00 | 0.00 | 0.00 | 4 | 1020.1 |
| 20260503173926 | 66 | 318 | 7.0 | 10.0 | 0.00 | 0.00 | 0.00 | 4 | 1020.0 |
| 20260503173626 | 66 | 321 | 2.0 | 3.0 | 0.00 | 0.00 | 0.00 | 4 | 1020.1 |
| 20260503173326 | 66 | 336 | 6.0 | 7.0 | 0.00 | 0.00 | 0.00 | 4 | 1020.1 |
| 20260503173026 | 66 | 320 | 5.0 | 8.0 | 0.00 | 0.00 | 0.00 | 4 | 1020.1 |
| 20260503172726 | 66 | 350 | 2.0 | 4.0 | 0.00 | 0.00 | 0.00 | 4 | 1020.1 |
| 20260503172426 | 66 | 178 | 1.0 | 4.0 | 0.00 | 0.00 | 0.00 | 4 | 1020.2 |
| 20260503172126 | 65 | 242 | 4.0 | 5.0 | 0.00 | 0.00 | 0.00 | 4 | 1020.3 |
| 20260503171826 | 66 | 270 | 4.0 | 6.0 | 0.00 | 0.00 | 0.00 | 4 | 1020.3 |
| 20260503171526 | 65 | 0 | 0.0 | 0.0 | 0.00 | 0.00 | 0.00 | 4 | 1020.4 |
| 20260503171226 | 67 | 0 | 0.0 | 0.0 | 0.00 | 0.00 | 0.00 | 4 | 1020.2 |
| 20260503170926 | 67 | 313 | 5.0 | 6.0 | 0.00 | 0.00 | 0.00 | 5 | 1020.3 |
| 20260503170626 | 65 | 260 | 2.0 | 4.0 | 0.00 | 0.00 | 0.00 | 5 | 1020.4 |
| 20260503170326 | 65 | 309 | 3.0 | 5.0 | 0.00 | 0.00 | 0.00 | 5 | 1020.4 |